| time (UTC) | temp F | wind direction | speed MPH | gust MPH | rain 1hr in | rain 24hr in | rain mn in | humidity % | barometer mb |
| 20260504130502 | 55 | 68 | 2.0 | 2.0 | 0.00 | 0.00 | 0.00 | 65 | 1001.7 |
| 20260504080802 | 50 | 158 | 0.0 | 0.0 | 0.00 | 0.00 | 0.00 | 74 | 1002.7 |
| 20260504050202 | 57 | 158 | 0.0 | 0.0 | 0.00 | 0.00 | 0.00 | 55 | 1005.1 |
| 20260504045102 | 58 | 158 | 0.0 | 0.0 | 0.00 | 0.00 | 0.00 | 50 | 1005.4 |
| 20260504044002 | 58 | 158 | 0.0 | 0.0 | 0.00 | 0.00 | 0.00 | 53 | 1005.4 |
| 20260504041701 | 58 | 158 | 0.0 | 0.0 | 0.00 | 0.00 | 0.00 | 51 | 1005.8 |
| 20260504040602 | 59 | 158 | 0.0 | 0.0 | 0.00 | 0.00 | 0.00 | 54 | 1005.4 |
| 20260504035304 | 59 | 158 | 0.0 | 0.0 | 0.00 | 0.00 | 0.00 | 50 | 1005.8 |
| 20260504034203 | 61 | 158 | 0.0 | 0.0 | 0.00 | 0.00 | 0.00 | 50 | 1005.8 |
| 20260504032502 | 61 | 158 | 0.0 | 0.0 | 0.00 | 0.00 | 0.00 | 48 | 1006.4 |
| 20260504031102 | 61 | 158 | 0.0 | 0.0 | 0.00 | 0.00 | 0.00 | 46 | 1006.1 |
| 20260504025304 | 62 | 158 | 0.0 | 0.0 | 0.00 | 0.00 | 0.00 | 46 | 1006.4 |
| 20260504023803 | 62 | 158 | 0.0 | 0.0 | 0.00 | 0.00 | 0.00 | 46 | 1006.4 |
| 20260504022801 | 63 | 158 | 0.0 | 0.0 | 0.00 | 0.00 | 0.00 | 46 | 1006.4 |
| 20260504021603 | 63 | 158 | 0.0 | 0.0 | 0.00 | 0.00 | 0.00 | 45 | 1006.4 |
| 20260504020402 | 64 | 158 | 0.0 | 0.0 | 0.00 | 0.00 | 0.00 | 41 | 1006.4 |
| 20260504015402 | 65 | 158 | 0.0 | 0.0 | 0.00 | 0.00 | 0.00 | 40 | 1006.4 |
| 20260504014302 | 66 | 158 | 0.0 | 0.0 | 0.00 | 0.00 | 0.00 | 40 | 1006.8 |
| 20260504012102 | 68 | 158 | 0.0 | 0.0 | 0.00 | 0.00 | 0.00 | 37 | 1006.8 |
| 20260504005802 | 70 | 45 | 0.0 | 0.0 | 0.00 | 0.00 | 0.00 | 35 | 1006.8 |
| 20260504004702 | 71 | 158 | 0.0 | 0.0 | 0.00 | 0.00 | 0.00 | 34 | 1006.4 |
| 20260504003602 | 72 | 270 | 1.0 | 1.0 | 0.00 | 0.00 | 0.00 | 34 | 1006.8 |
| 20260504001402 | 74 | 180 | 1.0 | 3.0 | 0.00 | 0.00 | 0.00 | 30 | 1006.8 |
| 20260503235202 | 76 | 0 | 2.0 | 3.0 | 0.00 | 0.00 | 0.00 | 30 | 1007.1 |
| 20260503234102 | 77 | 68 | 3.0 | 3.0 | 0.00 | 0.00 | 0.00 | 30 | 1007.1 |
| 20260503233004 | 78 | 45 | 2.0 | 2.0 | 0.00 | 0.00 | 0.00 | 30 | 1007.1 |
| 20260503230802 | 79 | 23 | 4.0 | 4.0 | 0.00 | 0.00 | 0.00 | 27 | 1007.1 |
| 20260503225703 | 79 | 45 | 5.0 | 5.0 | 0.00 | 0.00 | 0.00 | 27 | 1007.1 |
| 20260503224602 | 78 | 23 | 2.0 | 6.0 | 0.00 | 0.00 | 0.00 | 30 | 1007.1 |
| 20260503223503 | 80 | 45 | 1.0 | 4.0 | 0.00 | 0.00 | 0.00 | 30 | 1007.5 |
| 20260503222304 | 79 | 180 | 4.0 | 5.0 | 0.00 | 0.00 | 0.00 | 30 | 1007.1 |
| 20260503221202 | 78 | 225 | 3.0 | 4.0 | 0.00 | 0.00 | 0.00 | 30 | 1007.1 |
| 20260503215101 | 77 | 315 | 1.0 | 6.0 | 0.00 | 0.00 | 0.00 | 30 | 1007.5 |
| 20260503213902 | 79 | 203 | 1.0 | 4.0 | 0.00 | 0.00 | 0.00 | 27 | 1007.8 |
| 20260503212802 | 77 | 45 | 2.0 | 5.0 | 0.00 | 0.00 | 0.00 | 30 | 1007.5 |
| 20260503211702 | 77 | 158 | 4.0 | 4.0 | 0.00 | 0.00 | 0.00 | 31 | 1007.8 |
| 20260503210602 | 77 | 23 | 3.0 | 6.0 | 0.00 | 0.00 | 0.00 | 30 | 1008.1 |
| 20260503204302 | 78 | 135 | 2.0 | 3.0 | 0.00 | 0.00 | 0.00 | 30 | 1008.1 |
| 20260503203302 | 76 | 158 | 4.0 | 4.0 | 0.00 | 0.00 | 0.00 | 32 | 1008.1 |
| 20260503202202 | 74 | 45 | 0.0 | 3.0 | 0.00 | 0.00 | 0.00 | 35 | 1008.5 |
| 20260503200002 | 76 | 158 | 1.0 | 5.0 | 0.00 | 0.00 | 0.00 | 31 | 1008.8 |
| 20260503194902 | 75 | 158 | 0.0 | 6.0 | 0.00 | 0.00 | 0.00 | 34 | 1009.1 |
| 20260503193802 | 74 | 180 | 3.0 | 4.0 | 0.00 | 0.00 | 0.00 | 35 | 1009.1 |
| 20260503192602 | 73 | 180 | 3.0 | 4.0 | 0.00 | 0.00 | 0.00 | 35 | 1009.1 |
| 20260503191502 | 74 | 180 | 3.0 | 3.0 | 0.00 | 0.00 | 0.00 | 37 | 1009.1 |
| 20260503190402 | 74 | 270 | 2.0 | 4.0 | 0.00 | 0.00 | 0.00 | 32 | 1009.5 |
| 20260503185304 | 73 | 270 | 2.0 | 6.0 | 0.00 | 0.00 | 0.00 | 34 | 1009.1 |
| 20260503183003 | 73 | 180 | 7.0 | 7.0 | 0.00 | 0.00 | 0.00 | 34 | 1009.8 |
| 20260503181902 | 73 | 203 | 3.0 | 5.0 | 0.00 | 0.00 | 0.00 | 35 | 1009.8 |
| 20260503180802 | 72 | 270 | 1.0 | 5.0 | 0.00 | 0.00 | 0.00 | 34 | 1009.8 |
| 20260503175702 | 72 | 180 | 5.0 | 6.0 | 0.00 | 0.00 | 0.00 | 35 | 1010.2 |
| 20260503174602 | 71 | 158 | 2.0 | 7.0 | 0.00 | 0.00 | 0.00 | 35 | 1010.2 |
| 20260503173502 | 71 | 135 | 3.0 | 5.0 | 0.00 | 0.00 | 0.00 | 37 | 1010.2 |
| 20260503172402 | 71 | 135 | 5.0 | 5.0 | 0.00 | 0.00 | 0.00 | 37 | 1010.5 |
| 20260503150702 | 62 | 180 | 2.0 | 3.0 | 0.00 | 0.00 | 0.00 | 50 | 1010.2 |